User: anonymous   Login
Location: �clusier
(49.9361°N, 2.7869°E)
Time: 22:06:15
(UTC+00:00)
Language:

Cosmos 1943 Rocket - Orbit

View from above orbital plane
View from above orbital plane
View from above satellite
View from above satellite

Ground track
Ground track

The orbit data is extracted from the following two-line orbital elements,

1 19120U 88039B   21266.46797101 -.00000104  00000-0 -26486-4 0  9990
2 19120  71.0113 270.1413 0023674 313.1568  46.7578 14.19224837727616
Epoch (UTC): 23 September 2021 11:13:52
Eccentricity: 0.0023674
inclination: 71.0113°
perigee height: 811 km
apogee height: 845 km
right ascension of ascending node: 270.1413°
argument of perigee: 313.1568°
revolutions per day: 14.19224837
mean anomaly at epoch: 46.7578°
orbit number at epoch: 72761

The dashed part of the orbit path shows where the satellite is in the earth's shadow,  

DLR